Location: Gimli
(50.6330°N, 97.0000°W)
Time: 02:04:34
(UTC-06:00)

N. Korean satellite - Visible Passes

Search period start: 01 December 2020 00:00
Search period end: 11 December 2020 00:00
Orbit: 453 x 504 km, 97.2° (Epoch: 30 November)

Date Brightness Start Highest point End Pass type
(mag) Time Alt. Az. Time Alt. Az. Time Alt. Az.
01 Dec 7.0 05:58:04 10° NNE 06:01:41 65° ESE 06:05:18 10° S visible
01 Dec 8.3 07:32:43 10° NNW 07:34:34 14° WNW 07:36:26 10° W visible
01 Dec 9.8 18:12:50 10° WSW 18:14:43 14° W 18:16:37 10° NW visible
02 Dec 8.4 05:31:58 10° NNE 05:35:16 32° E 05:38:35 10° SSE visible
02 Dec 7.7 07:05:33 10° NNW 07:08:29 23° WNW 07:11:25 10° WSW visible
02 Dec 8.9 17:45:13 10° SSW 17:48:09 26° W 17:51:10 10° NW visible
03 Dec 9.5 05:06:15 10° NE 05:08:46 18° E 05:11:17 10° SE visible
03 Dec 6.9 06:38:50 10° N 06:42:17 43° WNW 06:45:46 10° SW visible
03 Dec 7.4 17:18:20 10° S 17:21:42 53° W 17:25:08 10° NNW visible
04 Dec 6.5 06:12:22 10° NNE 06:16:00 86° WNW 06:19:41 10° SSW visible
05 Dec 7.6 05:46:05 10° NNE 05:49:38 47° E 05:53:11 10° S visible
05 Dec 8.1 07:20:11 10° NNW 07:22:39 18° WNW 07:25:09 10° WSW visible
05 Dec 9.5 18:00:01 10° SW 18:02:32 19° W 18:05:05 10° NW visible
06 Dec 8.9 05:20:05 10° NE 05:23:09 24° E 05:26:12 10° SSE visible
06 Dec 7.4 06:53:15 10° N 06:56:30 30° WNW 06:59:45 10° SW visible
06 Dec 8.3 17:32:46 10° SSW 17:35:59 36° W 17:39:16 10° NNW visible
07 Dec 9.9 04:54:40 10° ENE 04:56:33 13° E 04:58:27 10° ESE visible
07 Dec 6.6 06:26:37 10° N 06:30:14 58° WNW 06:33:51 10° SSW visible
07 Dec 6.7 17:06:05 10° S 17:09:32 76° WSW 17:13:04 10° NNW visible
08 Dec 6.9 06:00:12 10° NNE 06:03:52 70° E 06:07:33 10° S visible
08 Dec 8.4 07:34:57 10° NNW 07:36:43 13° WNW 07:38:30 10° W visible
08 Dec 9.8 18:15:02 10° WSW 18:16:51 13° W 18:18:40 10° WNW visible
09 Dec 8.3 05:34:00 10° NNE 05:37:25 35° E 05:40:49 10° SSE visible
09 Dec 7.8 07:07:40 10° NNW 07:10:35 23° WNW 07:13:30 10° WSW visible
09 Dec 9.0 17:47:17 10° SSW 17:50:13 25° W 17:53:13 10° NW visible
10 Dec 9.4 05:08:10 10° NE 05:10:50 19° E 05:13:31 10° SE visible
10 Dec 7.0 06:40:52 10° N 06:44:20 40° WNW 06:47:49 10° SW visible
10 Dec 7.5 17:20:17 10° S 17:23:41 50° W 17:27:09 10° NNW visible
